Regional Weather Roundup
Issued by NWS

Home | Current Version | Previous Version | Text Only | Print | Product List | Glossary Off
Versions: 1 2 3 4 5 6 7 8 9 10 11 12 13 14 15 16 17 18 19 20 21 22 23 24 25 26 27 28 29 30 31 32 33 34 35 36 37 38 39 40 41 42 43 44 45 46 47 48 49 50

000
ASUS43 KBIS 290210
RWRND

NORTH DAKOTA REGIONAL WEATHER ROUNDUP
NATIONAL WEATHER SERVICE BISMARCK ND
900 PM CDT FRI APR 28 2017

NOTE: "FAIR" INDICATES FEW OR NO CLOUDS BELOW 12,000 FEET WITH NO
SIGNIFICANT WEATHER AND/OR OBSTRUCTIONS TO VISIBILITY.


NDZ001>003-009>011-017-290300-
NORTHWEST NORTH DAKOTA

CITY           SKY/WX    TMP DP  RH WIND       PRES   REMARKS
WILLISTON      FAIR      52  20  28 S5        30.11R
MINOT          FAIR      48  19  31 CALM      30.11R
MINOT AFB      CLEAR     52  20  28 CALM      30.10R
$$

NDZ018>021-031>035-040>046-290300-
SOUTHWEST NORTH DAKOTA

CITY           SKY/WX    TMP DP  RH WIND       PRES   REMARKS
BISMARCK       FAIR      51  15  23 NE5       30.14R
DICKINSON      FAIR      46  14  27 SE5       30.11R
GARRISON         N/A     41  19  41 SW7       30.12R
HETTINGER ARPT PTCLDY    45  20  36 SE7       30.14R
$$

NDZ004>008-012>016-024-026-027-054-290300-
NORTHEAST NORTH DAKOTA

CITY           SKY/WX    TMP DP  RH WIND       PRES   REMARKS
GRAND FORKS    PTCLDY    44  28  53 NW7       30.12R
GRND FRKS AFB  CLEAR     41  29  60 N6        30.13R
DEVILS LAKE    FAIR      47  21  35 NE6       30.12R
$$

NDZ022-023-025-028>030-036>039-047>053-290300-
SOUTHEAST NORTH DAKOTA

CITY           SKY/WX    TMP DP  RH WIND       PRES   REMARKS
FARGO          CLEAR     46  26  45 N5        30.11R
JAMESTOWN      FAIR      43  27  53 N7        30.11R
$$





USA.gov is the U.S. government's official web portal to all federal, state and local government web resources and services.